Simultaneous Nadir Overpasses (SNOs) Predictions

Prediction of SNOs between TERRA and METOP-C Satellite Orbit:

Table of predicted SNOs for the next 14.0 days since TLE Epoch: 7/30/2022
Index Date (TERRA) Time (TERRA) Lat,Lon (TERRA) SZA (TERRA ) Date (METOP-C) Time (METOP-C) Lat,Lon (METOP-C) SZA (METOP-C ) Distance(km) Time Diff (sec)
1 07/30/2022 12:01:39 -81.15,-140.08 115.28 07/30/2022 12:01:09 -81.15,-140.23 115.31 2.65 30
2 07/30/2022 12:51:04 81.19, 28.04 64.81 07/30/2022 12:51:47 81.19, 28.09 64.83 0.74 43
3 08/02/2022 07:35:50 -81.17, -73.40 114.54 08/02/2022 07:35:28 -81.17, -73.33 114.54 1.31 22
4 08/02/2022 08:25:16 81.18, 94.32 65.49 08/02/2022 08:26:08 81.18, 94.26 65.51 0.95 52
5 08/05/2022 03:10:03 -81.16, -7.11 113.82 08/05/2022 03:09:50 -81.16, -7.21 113.83 1.70 13
6 08/05/2022 03:59:28 81.19, 160.94 66.26 08/05/2022 04:00:29 81.18, 160.79 66.26 2.70 61
7 08/07/2022 22:44:15 -81.18, 59.53 113.00 08/07/2022 22:44:10 -81.17, 59.64 113.00 1.86 5
8 08/07/2022 23:33:41 81.18,-132.82 67.01 08/07/2022 23:34:50 81.18,-132.71 67.06 1.97 69
9 08/10/2022 17:29:01 81.14, -42.23 67.72 08/10/2022 17:27:52 81.14, -42.25 67.70 0.38 69



Historial Predications of SNOs between TERRA and METOP-C
